Time,TemperatureF,DewpointF,PressureIn,WindDirection,WindDirectionDegrees,WindSpeedMPH,WindSpeedGustMPH,Humidity,HourlyPrecipIn,Conditions,Clouds,dailyrainin,SoftwareType,DateUTC
2013-03-04 00:01:00,37.0,36.0,-100.00,West,266,0.0,-999.0,94,0.00,,,-99.99,,2013-03-04 08:01:00,
2013-03-04 00:11:00,37.0,36.0,-100.00,West,266,0.0,-999.0,94,0.00,,,-99.99,,2013-03-04 08:11:00,
2013-03-04 00:21:00,37.0,36.0,-100.00,West,266,0.0,-999.0,94,0.00,,,-99.99,,2013-03-04 08:21:00,
2013-03-04 00:30:00,37.0,35.0,-100.00,SW,234,0.0,-999.0,94,0.00,,,-99.99,,2013-03-04 08:30:00,
2013-03-04 00:52:00,37.0,35.0,-100.00,SW,234,0.0,-999.0,94,0.00,,,-99.99,,2013-03-04 08:52:00,
2013-03-04 01:01:00,37.0,35.0,-100.00,SW,234,0.0,-999.0,94,0.00,,,-99.99,,2013-03-04 09:01:00,
2013-03-04 01:11:00,37.0,35.0,-100.00,SW,234,0.0,-999.0,94,0.00,,,-99.99,,2013-03-04 09:11:00,
2013-03-04 01:21:00,37.0,35.0,-100.00,SW,234,0.0,-999.0,94,0.00,,,-99.99,,2013-03-04 09:21:00,
2013-03-04 01:30:00,36.0,35.0,-100.00,WSW,239,0.0,-999.0,94,0.00,,,-99.99,,2013-03-04 09:30:00,
2013-03-04 01:52:00,36.0,35.0,-100.00,WSW,239,0.0,-999.0,94,0.00,,,-99.99,,2013-03-04 09:52:00,
2013-03-04 02:01:00,36.0,35.0,-100.00,WSW,239,0.0,-999.0,94,0.00,,,-99.99,,2013-03-04 10:01:00,
2013-03-04 02:11:00,36.0,35.0,-100.00,WSW,239,0.0,-999.0,94,0.00,,,-99.99,,2013-03-04 10:11:00,
2013-03-04 02:21:00,36.0,35.0,-100.00,WSW,239,0.0,-999.0,94,0.00,,,-99.99,,2013-03-04 10:21:00,
2013-03-04 02:30:00,37.0,35.0,-100.00,SSW,206,0.0,-999.0,94,0.00,,,-99.99,,2013-03-04 10:30:00,
2013-03-04 02:52:00,37.0,35.0,-100.00,SSW,206,0.0,-999.0,94,0.00,,,-99.99,,2013-03-04 10:52:00,
2013-03-04 03:01:00,37.0,35.0,-100.00,SSW,206,0.0,-999.0,94,0.00,,,-99.99,,2013-03-04 11:01:00,
2013-03-04 03:11:00,37.0,35.0,-100.00,SSW,206,0.0,-999.0,94,0.00,,,-99.99,,2013-03-04 11:11:00,
2013-03-04 03:21:00,37.0,35.0,-100.00,SSW,206,0.0,-999.0,94,0.00,,,-99.99,,2013-03-04 11:21:00,
2013-03-04 03:30:00,36.0,34.0,-100.00,SW,229,0.0,-999.0,94,0.00,,,-99.99,,2013-03-04 11:30:00,
2013-03-04 03:52:00,36.0,34.0,-100.00,SW,229,0.0,-999.0,94,0.00,,,-99.99,,2013-03-04 11:52:00,
2013-03-04 04:01:00,36.0,34.0,-100.00,SW,229,0.0,-999.0,94,0.00,,,-99.99,,2013-03-04 12:01:00,
2013-03-04 04:11:00,36.0,34.0,-100.00,SW,229,0.0,-999.0,94,0.00,,,-99.99,,2013-03-04 12:11:00,
2013-03-04 04:22:00,36.0,34.0,-100.00,SW,229,0.0,-999.0,94,0.00,,,-99.99,,2013-03-04 12:22:00,
2013-03-04 04:30:00,35.0,34.0,-100.00,SW,226,0.0,-999.0,96,0.00,,,-99.99,,2013-03-04 12:30:00,
2013-03-04 04:53:00,35.0,34.0,-100.00,SW,226,0.0,-999.0,96,0.00,,,-99.99,,2013-03-04 12:53:00,
2013-03-04 05:02:00,35.0,34.0,-100.00,SW,226,0.0,-999.0,96,0.00,,,-99.99,,2013-03-04 13:02:00,
2013-03-04 05:11:00,35.0,34.0,-100.00,SW,226,0.0,-999.0,96,0.00,,,-99.99,,2013-03-04 13:11:00,
2013-03-04 05:21:00,35.0,34.0,-100.00,SW,226,0.0,-999.0,96,0.00,,,-99.99,,2013-03-04 13:21:00,
2013-03-04 05:30:00,34.0,33.0,-100.00,SSW,203,1.0,-999.0,96,0.00,,,-99.99,,2013-03-04 13:30:00,
2013-03-04 05:52:00,34.0,33.0,-100.00,SSW,203,1.0,-999.0,96,0.00,,,-99.99,,2013-03-04 13:52:00,
2013-03-04 06:01:00,34.0,33.0,-100.00,SSW,203,1.0,-999.0,96,0.00,,,-99.99,,2013-03-04 14:01:00,
2013-03-04 06:11:00,34.0,33.0,-100.00,SSW,203,1.0,-999.0,96,0.00,,,-99.99,,2013-03-04 14:11:00,
2013-03-04 06:22:00,34.0,33.0,-100.00,SSW,203,1.0,-999.0,96,0.00,,,-99.99,,2013-03-04 14:22:00,
2013-03-04 06:30:00,34.0,33.0,-100.00,South,171,1.0,-999.0,96,0.00,,,-99.99,,2013-03-04 14:30:00,
2013-03-04 06:52:00,34.0,33.0,-100.00,South,171,1.0,-999.0,96,0.00,,,-99.99,,2013-03-04 14:52:00,
2013-03-04 07:01:00,34.0,33.0,-100.00,South,171,1.0,-999.0,96,0.00,,,-99.99,,2013-03-04 15:01:00,
2013-03-04 07:11:00,34.0,33.0,-100.00,South,171,1.0,-999.0,96,0.00,,,-99.99,,2013-03-04 15:11:00,
2013-03-04 07:21:00,34.0,33.0,-100.00,South,171,1.0,-999.0,96,0.00,,,-99.99,,2013-03-04 15:21:00,
2013-03-04 07:30:00,34.0,33.0,-100.00,South,173,2.0,-999.0,95,0.00,,,-99.99,,2013-03-04 15:30:00,
2013-03-04 07:52:00,34.0,33.0,-100.00,South,173,2.0,-999.0,95,0.00,,,-99.99,,2013-03-04 15:52:00,
2013-03-04 08:02:00,34.0,33.0,-100.00,South,173,2.0,-999.0,95,0.00,,,-99.99,,2013-03-04 16:02:00,
2013-03-04 08:11:00,34.0,33.0,-100.00,South,173,2.0,-999.0,95,0.00,,,-99.99,,2013-03-04 16:11:00,
2013-03-04 08:21:00,34.0,33.0,-100.00,South,173,2.0,-999.0,95,0.00,,,-99.99,,2013-03-04 16:21:00,
2013-03-04 08:30:00,38.0,35.0,-100.00,South,171,1.0,-999.0,91,0.00,,,-99.99,,2013-03-04 16:30:00,
2013-03-04 08:52:00,38.0,35.0,-100.00,South,171,1.0,-999.0,91,0.00,,,-99.99,,2013-03-04 16:52:00,
2013-03-04 09:02:00,38.0,35.0,-100.00,South,171,1.0,-999.0,91,0.00,,,-99.99,,2013-03-04 17:02:00,
2013-03-04 09:11:00,38.0,35.0,-100.00,South,171,1.0,-999.0,91,0.00,,,-99.99,,2013-03-04 17:11:00,
2013-03-04 09:21:00,38.0,35.0,-100.00,South,171,1.0,-999.0,91,0.00,,,-99.99,,2013-03-04 17:21:00,
2013-03-04 09:30:00,42.0,37.0,-100.00,SSE,158,1.0,-999.0,81,0.00,,,-99.99,,2013-03-04 17:30:00,
2013-03-04 09:52:00,42.0,37.0,-100.00,SSE,158,1.0,-999.0,81,0.00,,,-99.99,,2013-03-04 17:52:00,
2013-03-04 10:01:00,42.0,37.0,-100.00,SSE,158,1.0,-999.0,81,0.00,,,-99.99,,2013-03-04 18:01:00,
2013-03-04 10:11:00,42.0,37.0,-100.00,SSE,158,1.0,-999.0,81,0.00,,,-99.99,,2013-03-04 18:11:00,
2013-03-04 10:21:00,42.0,37.0,-100.00,SSE,158,1.0,-999.0,81,0.00,,,-99.99,,2013-03-04 18:21:00,
2013-03-04 10:30:00,47.0,39.0,-100.00,South,169,3.0,-999.0,74,0.00,,,-99.99,,2013-03-04 18:30:00,
2013-03-04 10:52:00,47.0,39.0,-100.00,South,169,3.0,-999.0,74,0.00,,,-99.99,,2013-03-04 18:52:00,
2013-03-04 11:01:00,47.0,39.0,-100.00,South,169,3.0,-999.0,74,0.00,,,-99.99,,2013-03-04 19:01:00,
2013-03-04 11:11:00,47.0,39.0,-100.00,South,169,3.0,-999.0,74,0.00,,,-99.99,,2013-03-04 19:11:00,
2013-03-04 11:21:00,47.0,39.0,-100.00,South,169,3.0,-999.0,74,0.00,,,-99.99,,2013-03-04 19:21:00,
2013-03-04 11:30:00,49.0,42.0,-100.00,South,182,4.0,-999.0,75,0.00,,,-99.99,,2013-03-04 19:30:00,
2013-03-04 11:52:00,49.0,42.0,-100.00,South,182,4.0,-999.0,75,0.00,,,-99.99,,2013-03-04 19:52:00,
2013-03-04 12:01:00,49.0,42.0,-100.00,South,182,4.0,-999.0,75,0.00,,,-99.99,,2013-03-04 20:01:00,
2013-03-04 12:11:00,49.0,42.0,-100.00,South,182,4.0,-999.0,75,0.00,,,-99.99,,2013-03-04 20:11:00,
2013-03-04 12:21:00,49.0,42.0,-100.00,South,182,4.0,-999.0,75,0.00,,,-99.99,,2013-03-04 20:21:00,
2013-03-04 12:30:00,49.0,42.0,-100.00,South,190,5.0,-999.0,78,0.00,,,-99.99,,2013-03-04 20:30:00,
2013-03-04 12:52:00,49.0,42.0,-100.00,South,190,5.0,-999.0,78,0.00,,,-99.99,,2013-03-04 20:52:00,
2013-03-04 13:01:00,49.0,42.0,-100.00,South,190,5.0,-999.0,78,0.00,,,-99.99,,2013-03-04 21:01:00,
2013-03-04 13:11:00,49.0,42.0,-100.00,South,190,5.0,-999.0,78,0.00,,,-99.99,,2013-03-04 21:11:00,
2013-03-04 13:21:00,49.0,42.0,-100.00,South,190,5.0,-999.0,78,0.00,,,-99.99,,2013-03-04 21:21:00,
2013-03-04 13:30:00,53.0,43.0,-100.00,South,184,6.0,-999.0,68,0.00,,,-99.99,,2013-03-04 21:30:00,
2013-03-04 13:52:00,53.0,43.0,-100.00,South,184,6.0,-999.0,68,0.00,,,-99.99,,2013-03-04 21:52:00,
2013-03-04 14:01:00,53.0,43.0,-100.00,South,184,6.0,-999.0,68,0.00,,,-99.99,,2013-03-04 22:01:00,
2013-03-04 14:11:00,53.0,43.0,-100.00,South,184,6.0,-999.0,68,0.00,,,-99.99,,2013-03-04 22:11:00,
2013-03-04 14:21:00,53.0,43.0,-100.00,South,184,6.0,-999.0,68,0.00,,,-99.99,,2013-03-04 22:21:00,
2013-03-04 14:30:00,51.0,41.0,-100.00,South,184,9.0,-999.0,68,0.00,,,-99.99,,2013-03-04 22:30:00,
2013-03-04 14:52:00,51.0,41.0,-100.00,South,184,9.0,-999.0,68,0.00,,,-99.99,,2013-03-04 22:52:00,
2013-03-04 15:01:00,51.0,41.0,-100.00,South,184,9.0,-999.0,68,0.00,,,-99.99,,2013-03-04 23:01:00,
2013-03-04 15:11:00,51.0,41.0,-100.00,South,184,9.0,-999.0,68,0.00,,,-99.99,,2013-03-04 23:11:00,
2013-03-04 15:21:00,51.0,41.0,-100.00,South,184,9.0,-999.0,68,0.00,,,-99.99,,2013-03-04 23:21:00,
2013-03-04 15:30:00,50.0,40.0,-100.00,South,188,8.0,-999.0,68,0.00,,,-99.99,,2013-03-04 23:30:00,
2013-03-04 15:52:00,50.0,40.0,-100.00,South,188,8.0,-999.0,68,0.00,,,-99.99,,2013-03-04 23:52:00,
2013-03-04 16:01:00,50.0,40.0,-100.00,South,188,8.0,-999.0,68,0.00,,,-99.99,,2013-03-05 00:01:00,
2013-03-04 16:11:00,50.0,40.0,-100.00,South,188,8.0,-999.0,68,0.00,,,-99.99,,2013-03-05 00:11:00,
2013-03-04 16:21:00,50.0,40.0,-100.00,South,188,8.0,-999.0,68,0.00,,,-99.99,,2013-03-05 00:21:00,
2013-03-04 16:30:00,49.0,40.0,-100.00,South,183,9.0,-999.0,72,0.00,,,-99.99,,2013-03-05 00:30:00,
2013-03-04 16:52:00,49.0,40.0,-100.00,South,183,9.0,-999.0,72,0.00,,,-99.99,,2013-03-05 00:52:00,
2013-03-04 17:01:00,49.0,40.0,-100.00,South,183,9.0,-999.0,72,0.00,,,-99.99,,2013-03-05 01:01:00,
2013-03-04 17:11:00,49.0,40.0,-100.00,South,183,9.0,-999.0,72,0.00,,,-99.99,,2013-03-05 01:11:00,
2013-03-04 17:21:00,49.0,40.0,-100.00,South,183,9.0,-999.0,72,0.00,,,-99.99,,2013-03-05 01:21:00,
2013-03-04 17:30:00,47.0,40.0,-100.00,South,180,7.0,-999.0,76,0.00,,,-99.99,,2013-03-05 01:30:00,
2013-03-04 17:52:00,47.0,40.0,-100.00,South,180,7.0,-999.0,76,0.00,,,-99.99,,2013-03-05 01:52:00,
2013-03-04 18:01:00,47.0,40.0,-100.00,South,180,7.0,-999.0,76,0.00,,,-99.99,,2013-03-05 02:01:00,
2013-03-04 18:11:00,47.0,40.0,-100.00,South,180,7.0,-999.0,76,0.00,,,-99.99,,2013-03-05 02:11:00,
2013-03-04 18:21:00,47.0,40.0,-100.00,South,180,7.0,-999.0,76,0.00,,,-99.99,,2013-03-05 02:21:00,
2013-03-04 18:30:00,46.0,39.0,-100.00,South,180,8.0,-999.0,78,0.00,,,-99.99,,2013-03-05 02:30:00,
2013-03-04 18:52:00,46.0,39.0,-100.00,South,180,8.0,-999.0,78,0.00,,,-99.99,,2013-03-05 02:52:00,
2013-03-04 19:01:00,46.0,39.0,-100.00,South,180,8.0,-999.0,78,0.00,,,-99.99,,2013-03-05 03:01:00,
2013-03-04 19:12:00,46.0,39.0,-100.00,South,180,8.0,-999.0,78,0.00,,,-99.99,,2013-03-05 03:12:00,
2013-03-04 19:21:00,46.0,39.0,-100.00,South,180,8.0,-999.0,78,0.00,,,-99.99,,2013-03-05 03:21:00,
2013-03-04 19:30:00,45.0,39.0,-100.00,South,176,7.0,-999.0,80,0.00,,,-99.99,,2013-03-05 03:30:00,
2013-03-04 19:52:00,45.0,39.0,-100.00,South,176,7.0,-999.0,80,0.00,,,-99.99,,2013-03-05 03:52:00,
2013-03-04 20:01:00,45.0,39.0,-100.00,South,176,7.0,-999.0,80,0.00,,,-99.99,,2013-03-05 04:01:00,
2013-03-04 20:11:00,45.0,39.0,-100.00,South,176,7.0,-999.0,80,0.00,,,-99.99,,2013-03-05 04:11:00,
2013-03-04 20:21:00,45.0,39.0,-100.00,South,176,7.0,-999.0,80,0.00,,,-99.99,,2013-03-05 04:21:00,
2013-03-04 20:30:00,42.0,38.0,-100.00,NW,304,0.0,-999.0,86,0.00,,,-99.99,,2013-03-05 04:30:00,
2013-03-04 20:52:00,42.0,38.0,-100.00,NW,304,0.0,-999.0,86,0.00,,,-99.99,,2013-03-05 04:52:00,
2013-03-04 21:01:00,42.0,38.0,-100.00,NW,304,0.0,-999.0,86,0.00,,,-99.99,,2013-03-05 05:01:00,
2013-03-04 21:11:00,42.0,38.0,-100.00,NW,304,0.0,-999.0,86,0.00,,,-99.99,,2013-03-05 05:11:00,
2013-03-04 21:22:00,42.0,38.0,-100.00,NW,304,0.0,-999.0,86,0.00,,,-99.99,,2013-03-05 05:22:00,
2013-03-04 21:30:00,40.0,38.0,-100.00,South,188,2.0,-999.0,91,0.00,,,-99.99,,2013-03-05 05:30:00,
2013-03-04 21:52:00,40.0,38.0,-100.00,South,188,2.0,-999.0,91,0.00,,,-99.99,,2013-03-05 05:52:00,
2013-03-04 22:01:00,40.0,38.0,-100.00,South,188,2.0,-999.0,91,0.00,,,-99.99,,2013-03-05 06:01:00,
2013-03-04 22:11:00,40.0,38.0,-100.00,South,188,2.0,-999.0,91,0.00,,,-99.99,,2013-03-05 06:11:00,
2013-03-04 22:22:00,40.0,38.0,-100.00,South,188,2.0,-999.0,91,0.00,,,-99.99,,2013-03-05 06:22:00,
2013-03-04 22:30:00,40.0,38.0,-100.00,South,169,2.0,-999.0,92,0.00,,,-99.99,,2013-03-05 06:30:00,
2013-03-04 22:52:00,40.0,38.0,-100.00,South,169,2.0,-999.0,92,0.00,,,-99.99,,2013-03-05 06:52:00,
2013-03-04 23:01:00,40.0,38.0,-100.00,South,169,2.0,-999.0,92,0.00,,,-99.99,,2013-03-05 07:01:00,
2013-03-04 23:11:00,40.0,38.0,-100.00,South,169,2.0,-999.0,92,0.00,,,-99.99,,2013-03-05 07:11:00,
2013-03-04 23:21:00,40.0,38.0,-100.00,South,169,2.0,-999.0,92,0.00,,,-99.99,,2013-03-05 07:21:00,
2013-03-04 23:30:00,41.0,38.0,-100.00,South,178,4.0,-999.0,88,0.00,,,-99.99,,2013-03-05 07:30:00,
2013-03-04 23:52:00,41.0,38.0,-100.00,South,178,4.0,-999.0,88,0.00,,,-99.99,,2013-03-05 07:52:00,